ViaSat-1

operational
NORAD ID: 37843 Int'l Des: 2011-059 Owner: VIA Country: US
HEOCIRCULARGSOGEO

About ViaSat-1

Description loading...

Live Position

Loading 3D Globe...

Upcoming Passes

Altitude History

Altitude vs Time

uPlot chart will show altitude changes over time

Two-Line Element Set

1 37843U 11059A 26061.14906147 .00000000 00000-0 00000+0 0 9997
2 37843 0.0241 160.1256 0002453 187.5370 110.8345 1.00267751 46247
Epoch: Mar 2, 2026 • Age: 33 hours

Current Status

Altitude 35797.0 km
Velocity 3.07 km/s
Sub-Earth Point 0.03°N, 115.1°W
Launch Date Oct 19, 2011
Age 14.3 years
Type other

Technical Details

Classification Payload
Mass 6740.00 kg
Dry Mass 3650.00 kg
Total Mass 6740.00 kg
Length 8.70 m
Diameter 3.10 m
Span 26.10 m
Shape Box + 2 Pan
Manufacturer LOR
Bus Type SSL-1300
Phase Status In Orbit
Owner/State VIA/US

Large Constellations

Loading constellations...